Regional Weather Roundup
Issued by NWS Kansas City/Pleasant Hill, MO

Current Version | Previous Version | Text Only | Print | Product List | Glossary On
Versions: 1 2 3 4 5 6 7 8 9 10 11 12 13 14 15 16 17 18 19 20 21 22 23 24 25 26 27 28 29 30 31 32 33 34 35 36 37 38 39 40 41 42 43 44 45 46 47 48 49 50
000
ASUS43 KEAX 250910
RWREAX

WEATHER ROUNDUP FOR EASTERN KANSAS AND NORTHWEST MISSOURI
NATIONAL WEATHER SERVICE KANSAS CITY/PLEASANT HILL MO
400 AM CDT TUE APR 25 2017

KSZ040-057-103>105-MOZ028-029-037-043-251000-
...KANSAS CITY METROPOLITAN AREA...

CITY           SKY/WX    TMP DP  RH WIND       PRES   REMARKS
K.C. INTL      CLOUDY    62  46  55 S16       29.51F
K.C. DOWNTOWN  CLOUDY    63  45  51 S9        29.51F
LEES SUMMIT    CLOUDY    60  44  55 S12       29.54F
OLATHE - IXD   CLOUDY    60  46  59 S10       29.52F
OLATHE - OJC   PTCLDY    59  47  64 S10       29.51F
LAWRENCE       CLOUDY    60  48  64 SE8       29.52F

$$

MOZ001>008-011>017-020>025-030>033-038>040-044>046-053-054-251000-
...NORTHERN AND CENTRAL MISSOURI...

CITY           SKY/WX    TMP DP  RH WIND       PRES   REMARKS
ST. JOSEPH     PTCLDY    61  48  62 MISG      29.50F
MOSBY          PTSUNNY   55  43  62 SE5       29.55F
WHITEMAN AFB   MOCLDY    58  42  55 S10       29.57F
CLINTON        CLOUDY    57  41  54 S12       29.58F
SEDALIA        CLOUDY    59  41  51 S10       29.60F
WARSAW         NOT AVBL
CHILLICOTHE      N/A     56  38  50 SE6       29.57F
KIRKSVILLE     CLOUDY    48  32  53 SE7       29.60F

$$

MOZ041-047>049-056>058-063>065-088>090-097-251000-
...EASTERN AND SOUTHERN MISSOURI...

CITY           SKY/WX    TMP DP  RH WIND       PRES   REMARKS
ST. LOUIS INTL PTCLDY    59  46  62 S5        29.69S
SPIRIT OF STL  CLOUDY    52  48  86 CALM      29.68S
COLUMBIA       PTCLDY    53  41  63 S8        29.64F
JEFFERSON CITY CLOUDY    55  41  59 E6        29.64F
ROLLA          CLOUDY    54  45  71 S9        29.66S
OSAGE BEACH    PTCLDY    56  42  59 S5        29.66S
SPRINGFIELD    CLOUDY    56  41  57 SE12      29.62F
BRANSON        CLEAR     52  41  66 CALM      29.66F
JOPLIN         CLEAR     57  43  59 SE10      29.58F
WEST PLAINS    PTCLDY    54  45  71 S5        29.70F

$$

IAZ060-094-KSZ022-034>040-054-083-096-NEZ052-066-093-251000-
...KANSAS...SOUTHEAST NEBRASKA AND IOWA...

CITY           SKY/WX    TMP DP  RH WIND       PRES   REMARKS
TOPEKA         CLOUDY    63  49  60 S12       29.51R
MANHATTAN      CLOUDY    63  49  60 W7        29.43F
EMPORIA        MOCLDY    59  49  69 S10       29.48F
CHANUTE        CLEAR     58  46  64 SE12      29.53F
WICHITA        PTCLDY    60  50  69 SE16G23   29.40F
OMAHA          MOCLDY    53  42  66 N12       29.49F
LINCOLN        MOCLDY    50  42  74 N8        29.51F
FALLS CITY     CLOUDY    54  46  74 SE7       29.48F
LAMONI         MOCLDY    56  37  49 S8        29.53F
DES MOINES     PTCLDY    58  38  47 S7        29.53S

$$




USA.gov is the U.S. government's official web portal to all federal, state and local government web resources and services.